Jaffrey, NH

5:27 PM EDT on March 27, 2017 (GMT -0400)
Jaffrey Airport-Silver Ranch

Weather History for KAFN - March, 2014

Change the Weather History Date:

Monday, March 3, 2014

  Actual Average Record
Temperature  
Mean Temperature 11 °F -  
Max Temperature 19 °F 34 °F 55 °F (2002)
Min Temperature 0 °F 17 °F 0 °F (2003)
Degree Days  
Heating Degree Days 54    
Moisture  
Dew Point -3 °F    
Average Humidity 50    
Maximum Humidity 72    
Minimum Humidity 33    
Precipitation  
Precipitation 0.00 in - - ()
Sea Level Pressure  
Sea Level Pressure 30.14 in    
Wind  
Wind Speed 6 mph (NNW)    
Max Wind Speed 9 mph    
Max Gust Speed 17 mph    
Visibility 10 miles    
Events      
Averages and records for this station are not official NWS values.
T = Trace of Precipitation, MM = Missing Value Source: NWS Daily Summary

Daily Weather History Graph

Daily Weather History Graph

Search for Another Location

Airport or City:

Trip Planner

Search our weather history database for the weather conditions in past years. The results will help you decide how hot, cold, wet, or windy it might be!

Date:

Astronomy

Mar. 03, 2014 Rise Set
Actual Time 6:20 AM EST 5:39 PM EST
Civil Twilight 5:52 AM EST 6:08 PM EST
Nautical Twilight 5:19 AM EST 6:41 PM EST
Astronomical Twilight 4:46 AM EST 7:13 PM EST
Moon 7:22 AM EST (3/3) 8:45 PM EST (3/3)
Length of Visible Light 12h 16m
Length of Day
11h 19m
Waxing Crescent, 8% of the Moon is Illuminated
Mar 3
Waxing Crescent
Mar 8
First Quarter
Mar 16
Full
Mar 23
Last Quarter
Mar 30
New

Hourly Weather History & Observations

Time (EST) Temp. Windchill Dew Point Humidity Pressure Visibility Wind Dir Wind Speed Gust Speed Precip Events Conditions
12:23 AM 19.9 °F 11.1 °F 9.0 °F 62% 29.97 in 10.0 mi WNW 6.9 mph - N/A   Overcast
12:52 AM 19.0 °F 13.9 °F 8.1 °F 62% 30.02 in 10.0 mi NW 3.5 mph - N/A   Mostly Cloudy
1:52 AM 18.0 °F 8.7 °F 7.0 °F 62% 30.02 in 10.0 mi Variable 6.9 mph - N/A   Overcast
2:11 AM 17.1 °F 5.8 °F 5.0 °F 59% 29.96 in 10.0 mi NNW 9.2 mph - N/A   Overcast
2:52 AM 16.0 °F 5.3 °F 3.0 °F 57% 30.02 in 10.0 mi NNW 8.1 mph - N/A   Overcast
3:52 AM 14.0 °F 6.5 °F 1.9 °F 59% 30.05 in 10.0 mi Variable 4.6 mph - N/A   Overcast
4:52 AM 12.0 °F 0.5 °F -0.0 °F 59% 30.07 in 10.0 mi NNW 8.1 mph - N/A   Clear
5:52 AM 12.0 °F 5.9 °F -0.9 °F 56% 30.09 in 10.0 mi NNW 3.5 mph - N/A   Clear
6:52 AM 10.9 °F 1.4 °F -0.9 °F 59% 30.11 in 10.0 mi Variable 5.8 mph - N/A   Clear
7:52 AM 10.9 °F 4.7 °F -2.0 °F 56% 30.12 in 10.0 mi Variable 3.5 mph - N/A   Clear
8:52 AM 12.9 °F 2.6 °F -2.9 °F 49% 30.12 in 10.0 mi NNW 6.9 mph - N/A   Clear
9:52 AM 14.0 °F 5.1 °F -4.0 °F 45% 30.13 in 10.0 mi Variable 5.8 mph - N/A   Clear
10:52 AM 14.0 °F 3.9 °F -5.1 °F 43% 30.14 in 10.0 mi NNW 6.9 mph - N/A   Clear
11:52 AM 15.1 °F 6.4 °F -4.0 °F 43% 30.14 in 10.0 mi NNW 5.8 mph - N/A   Clear
12:52 PM 16.0 °F 5.3 °F -4.0 °F 41% 30.13 in 10.0 mi NNW 8.1 mph 17.3 mph N/A   Clear
1:52 PM 17.1 °F 8.7 °F -4.0 °F 39% 30.13 in 10.0 mi Variable 5.8 mph - N/A   Clear
2:52 PM 17.1 °F 6.6 °F -6.0 °F 36% 30.14 in 10.0 mi NW 8.1 mph 17.3 mph N/A   Clear
3:52 PM 17.1 °F 7.6 °F -7.1 °F 34% 30.16 in 10.0 mi Variable 6.9 mph - N/A   Clear
4:52 PM 17.1 °F 7.6 °F -8.0 °F 33% 30.19 in 10.0 mi WNW 6.9 mph - N/A   Clear
5:52 PM 15.1 °F 9.4 °F -9.0 °F 34% 30.22 in 10.0 mi NW 3.5 mph - N/A   Clear
6:52 PM 14.0 °F 6.5 °F -9.0 °F 35% 30.25 in 10.0 mi NW 4.6 mph - N/A   Clear
7:52 PM 10.0 °F 3.6 °F -6.0 °F 48% 30.26 in 10.0 mi NNW 3.5 mph - N/A   Clear
8:52 PM 10.9 °F 1.4 °F -7.1 °F 44% 30.28 in 10.0 mi Variable 5.8 mph - N/A   Clear
9:52 PM 10.9 °F 0.2 °F -7.1 °F 44% 30.28 in 10.0 mi North 6.9 mph - N/A   Clear
10:52 PM 3.0 °F -6.4 °F -7.1 °F 63% 30.29 in 10.0 mi SSE 4.6 mph - N/A   Clear
11:52 PM -0.9 °F - -8.0 °F 72% 30.30 in 10.0 mi Calm Calm - N/A   Clear